Time,TemperatureF,DewpointF,PressureIn,WindDirection,WindDirectionDegrees,WindSpeedMPH,WindSpeedGustMPH,Humidity,HourlyPrecipIn,Conditions,Clouds,dailyrainin,SoftwareType,DateUTC
2013-02-18 00:10:00,22.7,9.0,30.19,NW,306,2.0,6.0,55,0.00,,,0.00,weatherlink.com 1.10,2013-02-18 05:10:00,
2013-02-18 00:25:00,22.5,9.0,30.20,NW,304,0.0,5.0,56,0.00,,,0.00,weatherlink.com 1.10,2013-02-18 05:25:00,
2013-02-18 00:40:00,22.2,9.0,30.20,WNW,294,1.0,7.0,58,0.00,,,0.00,weatherlink.com 1.10,2013-02-18 05:40:00,
2013-02-18 00:55:00,22.0,9.0,30.21,NW,310,0.0,6.0,57,0.00,,,0.00,weatherlink.com 1.10,2013-02-18 05:55:00,
2013-02-18 01:10:00,22.0,9.0,30.20,NW,311,2.0,5.0,57,0.00,,,0.00,weatherlink.com 1.10,2013-02-18 06:10:00,
2013-02-18 01:25:00,21.8,8.0,30.21,WNW,300,0.0,5.0,56,0.00,,,0.00,weatherlink.com 1.10,2013-02-18 06:25:00,
2013-02-18 01:40:00,21.6,8.0,30.21,NW,304,0.0,5.0,56,0.00,,,0.00,weatherlink.com 1.10,2013-02-18 06:40:00,
2013-02-18 01:55:00,21.7,8.0,30.21,NW,314,0.0,8.0,55,0.00,,,0.00,weatherlink.com 1.10,2013-02-18 06:55:00,
2013-02-18 02:10:00,21.5,8.0,30.22,WNW,298,2.0,7.0,56,0.00,,,0.00,weatherlink.com 1.10,2013-02-18 07:10:00,
2013-02-18 02:25:00,21.3,7.0,30.23,NW,304,0.0,4.0,55,0.00,,,0.00,weatherlink.com 1.10,2013-02-18 07:25:00,
2013-02-18 02:40:00,21.1,8.0,30.23,NW,312,0.0,5.0,56,0.00,,,0.00,weatherlink.com 1.10,2013-02-18 07:40:00,
2013-02-18 02:55:00,20.8,8.0,30.22,NW,315,2.0,6.0,57,0.00,,,0.00,weatherlink.com 1.10,2013-02-18 07:55:00,
2013-02-18 03:10:00,20.9,7.0,30.22,WNW,296,3.0,9.0,56,0.00,,,0.00,weatherlink.com 1.10,2013-02-18 08:10:00,
2013-02-18 03:25:00,20.8,8.0,30.22,WNW,294,1.0,8.0,57,0.00,,,0.00,weatherlink.com 1.10,2013-02-18 08:25:00,
2013-02-18 03:40:00,20.7,8.0,30.22,WNW,300,4.0,8.0,57,0.00,,,0.00,weatherlink.com 1.10,2013-02-18 08:40:00,
2013-02-18 03:55:00,20.6,7.0,30.23,WNW,303,0.0,4.0,57,0.00,,,0.00,weatherlink.com 1.10,2013-02-18 08:55:00,
2013-02-18 04:10:00,20.2,7.0,30.23,WNW,301,1.0,6.0,57,0.00,,,0.00,weatherlink.com 1.10,2013-02-18 09:10:00,
2013-02-18 04:26:00,20.1,7.0,30.24,NNW,338,0.0,2.0,57,0.00,,,0.00,weatherlink.com 1.10,2013-02-18 09:26:00,
2013-02-18 04:41:00,19.8,7.0,30.25,NW,315,0.0,4.0,58,0.00,,,0.00,weatherlink.com 1.10,2013-02-18 09:41:00,
2013-02-18 04:55:00,20.0,7.0,30.25,NW,304,1.0,5.0,58,0.00,,,0.00,weatherlink.com 1.10,2013-02-18 09:55:00,
2013-02-18 05:11:00,20.6,7.0,30.26,NW,314,1.0,10.0,57,0.00,,,0.00,weatherlink.com 1.10,2013-02-18 10:11:00,
2013-02-18 05:26:00,20.9,8.0,30.27,NW,304,1.0,8.0,57,0.00,,,0.00,weatherlink.com 1.10,2013-02-18 10:26:00,
2013-02-18 05:41:00,20.9,8.0,30.28,NW,307,1.0,7.0,57,0.00,,,0.00,weatherlink.com 1.10,2013-02-18 10:41:00,
2013-02-18 05:56:00,20.6,8.0,30.29,NW,304,0.0,4.0,58,0.00,,,0.00,weatherlink.com 1.10,2013-02-18 10:56:00,
2013-02-18 06:11:00,20.3,8.0,30.29,NW,304,0.0,2.0,60,0.00,,,0.00,weatherlink.com 1.10,2013-02-18 11:11:00,
2013-02-18 06:26:00,20.2,8.0,30.30,WNW,298,3.0,9.0,59,0.00,,,0.00,weatherlink.com 1.10,2013-02-18 11:26:00,
2013-02-18 06:41:00,20.6,8.0,30.31,NW,310,0.0,7.0,59,0.00,,,0.00,weatherlink.com 1.10,2013-02-18 11:41:00,
2013-02-18 06:56:00,20.1,8.0,30.31,NW,310,0.0,0.0,59,0.00,,,0.00,weatherlink.com 1.10,2013-02-18 11:56:00,
2013-02-18 07:11:00,19.6,8.0,30.32,NW,310,0.0,2.0,61,0.00,,,0.00,weatherlink.com 1.10,2013-02-18 12:11:00,
2013-02-18 07:26:00,19.1,8.0,30.32,NW,310,1.0,3.0,63,0.00,,,0.00,weatherlink.com 1.10,2013-02-18 12:26:00,
2013-02-18 07:41:00,19.9,9.0,30.33,NW,309,0.0,4.0,62,0.00,,,0.00,weatherlink.com 1.10,2013-02-18 12:41:00,
2013-02-18 07:56:00,21.3,9.0,30.33,WSW,257,0.0,4.0,60,0.00,,,0.00,weatherlink.com 1.10,2013-02-18 12:56:00,
2013-02-18 08:11:00,22.3,9.0,30.34,WNW,288,0.0,4.0,58,0.00,,,0.00,weatherlink.com 1.10,2013-02-18 13:11:00,
2013-02-18 08:26:00,23.1,9.0,30.35,NW,306,2.0,6.0,56,0.00,,,0.00,weatherlink.com 1.10,2013-02-18 13:26:00,
2013-02-18 08:41:00,23.8,10.0,30.36,WNW,296,3.0,9.0,55,0.00,,,0.00,weatherlink.com 1.10,2013-02-18 13:41:00,
2013-02-18 08:56:00,24.4,10.0,30.36,West,260,3.0,6.0,55,0.00,,,0.00,weatherlink.com 1.10,2013-02-18 13:56:00,
2013-02-18 09:11:00,25.1,10.0,30.35,WNW,302,1.0,5.0,54,0.00,,,0.00,weatherlink.com 1.10,2013-02-18 14:11:00,
2013-02-18 09:26:00,25.9,11.0,30.36,NW,304,3.0,6.0,53,0.00,,,0.00,weatherlink.com 1.10,2013-02-18 14:26:00,
2013-02-18 09:41:00,26.4,11.0,30.36,West,277,2.0,5.0,53,0.00,,,0.00,weatherlink.com 1.10,2013-02-18 14:41:00,
2013-02-18 09:56:00,27.0,12.0,30.36,NW,313,5.0,7.0,54,0.00,,,0.00,weatherlink.com 1.10,2013-02-18 14:56:00,
2013-02-18 10:11:00,27.1,11.0,30.35,NW,307,2.0,8.0,52,0.00,,,0.00,weatherlink.com 1.10,2013-02-18 15:11:00,
2013-02-18 10:26:00,28.1,12.0,30.35,WSW,257,2.0,5.0,52,0.00,,,0.00,weatherlink.com 1.10,2013-02-18 15:26:00,
2013-02-18 10:42:00,29.2,13.0,30.35,WNW,303,0.0,6.0,50,0.00,,,0.00,weatherlink.com 1.10,2013-02-18 15:42:00,
2013-02-18 10:56:00,29.5,13.0,30.34,WNW,302,1.0,6.0,50,0.00,,,0.00,weatherlink.com 1.10,2013-02-18 15:56:00,
2013-02-18 11:12:00,30.8,13.0,30.34,NW,304,0.0,4.0,48,0.00,,,0.00,weatherlink.com 1.10,2013-02-18 16:12:00,
2013-02-18 11:27:00,31.9,15.0,30.32,South,178,0.0,3.0,51,0.00,,,0.00,weatherlink.com 1.10,2013-02-18 16:27:00,
2013-02-18 11:41:00,32.7,14.0,30.32,WNW,299,1.0,5.0,46,0.00,,,0.00,weatherlink.com 1.10,2013-02-18 16:41:00,
2013-02-18 11:57:00,32.9,14.0,30.31,WNW,290,0.0,6.0,46,0.00,,,0.00,weatherlink.com 1.10,2013-02-18 16:57:00,
2013-02-18 12:12:00,33.1,14.0,30.30,South,173,2.0,6.0,45,0.00,,,0.00,weatherlink.com 1.10,2013-02-18 17:12:00,
2013-02-18 12:27:00,33.8,15.0,30.29,SW,217,3.0,5.0,46,0.00,,,0.00,weatherlink.com 1.10,2013-02-18 17:27:00,
2013-02-18 12:42:00,34.4,14.0,30.28,South,182,3.0,7.0,43,0.00,,,0.00,weatherlink.com 1.10,2013-02-18 17:42:00,
2013-02-18 12:57:00,35.8,16.0,30.27,SSE,149,1.0,5.0,44,0.00,,,0.00,weatherlink.com 1.10,2013-02-18 17:57:00,
2013-02-18 13:12:00,36.1,15.0,30.27,SW,236,4.0,7.0,42,0.00,,,0.00,weatherlink.com 1.10,2013-02-18 18:12:00,
2013-02-18 13:27:00,36.6,16.0,30.26,WSW,248,3.0,11.0,43,0.00,,,0.00,weatherlink.com 1.10,2013-02-18 18:27:00,
2013-02-18 13:42:00,37.5,16.0,30.25,WSW,250,2.0,7.0,42,0.00,,,0.00,weatherlink.com 1.10,2013-02-18 18:42:00,
2013-02-18 13:57:00,38.6,17.0,30.24,SSE,155,4.0,7.0,41,0.00,,,0.00,weatherlink.com 1.10,2013-02-18 18:57:00,
2013-02-18 14:12:00,39.1,17.0,30.24,WSW,253,2.0,8.0,40,0.00,,,0.00,weatherlink.com 1.10,2013-02-18 19:12:00,
2013-02-18 14:27:00,38.7,16.0,30.23,West,269,0.0,10.0,40,0.00,,,0.00,weatherlink.com 1.10,2013-02-18 19:27:00,
2013-02-18 14:42:00,39.6,16.0,30.23,West,259,1.0,5.0,38,0.00,,,0.00,weatherlink.com 1.10,2013-02-18 19:42:00,
2013-02-18 14:57:00,40.6,17.0,30.22,SSE,157,0.0,8.0,38,0.00,,,0.00,weatherlink.com 1.10,2013-02-18 19:57:00,
2013-02-18 15:12:00,40.8,16.0,30.22,NW,321,0.0,6.0,37,0.00,,,0.00,weatherlink.com 1.10,2013-02-18 20:12:00,
2013-02-18 15:27:00,41.4,17.0,30.22,South,187,1.0,6.0,37,0.00,,,0.00,weatherlink.com 1.10,2013-02-18 20:27:00,
2013-02-18 15:42:00,41.8,17.0,30.21,South,173,0.0,6.0,37,0.00,,,0.00,weatherlink.com 1.10,2013-02-18 20:42:00,
2013-02-18 15:57:00,41.9,17.0,30.21,WSW,246,4.0,7.0,37,0.00,,,0.00,weatherlink.com 1.10,2013-02-18 20:57:00,
2013-02-18 16:12:00,41.8,17.0,30.20,SW,223,0.0,6.0,37,0.00,,,0.00,weatherlink.com 1.10,2013-02-18 21:12:00,
2013-02-18 16:27:00,42.2,17.0,30.19,West,265,3.0,7.0,37,0.00,,,0.00,weatherlink.com 1.10,2013-02-18 21:27:00,
2013-02-18 16:42:00,41.6,18.0,30.20,SSE,148,2.0,6.0,38,0.00,,,0.00,weatherlink.com 1.10,2013-02-18 21:42:00,
2013-02-18 16:58:00,40.5,18.0,30.20,SSE,163,0.0,8.0,40,0.00,,,0.00,weatherlink.com 1.10,2013-02-18 21:58:00,
2013-02-18 17:12:00,39.7,17.0,30.20,SSE,165,0.0,4.0,40,0.00,,,0.00,weatherlink.com 1.10,2013-02-18 22:12:00,
2013-02-18 17:27:00,39.0,17.0,30.20,SSE,163,0.0,3.0,41,0.00,,,0.00,weatherlink.com 1.10,2013-02-18 22:27:00,
2013-02-18 17:42:00,38.5,17.0,30.20,SE,142,0.0,3.0,41,0.00,,,0.00,weatherlink.com 1.10,2013-02-18 22:42:00,
2013-02-18 17:57:00,38.1,18.0,30.20,SSE,149,0.0,4.0,44,0.00,,,0.00,weatherlink.com 1.10,2013-02-18 22:57:00,
2013-02-18 18:13:00,37.4,18.0,30.20,SSE,149,0.0,1.0,45,0.00,,,0.00,weatherlink.com 1.10,2013-02-18 23:13:00,
2013-02-18 18:27:00,36.5,17.0,30.20,SSE,149,0.0,1.0,46,0.00,,,0.00,weatherlink.com 1.10,2013-02-18 23:27:00,
2013-02-18 18:43:00,35.5,17.0,30.19,SSE,149,0.0,1.0,48,0.00,,,0.00,weatherlink.com 1.10,2013-02-18 23:43:00,
2013-02-18 18:57:00,35.0,17.0,30.20,SSE,148,0.0,3.0,48,0.00,,,0.00,weatherlink.com 1.10,2013-02-18 23:57:00,
2013-02-18 19:12:00,35.1,17.0,30.20,SSE,149,0.0,2.0,48,0.00,,,0.00,weatherlink.com 1.10,2013-02-19 00:12:00,
2013-02-18 19:27:00,34.7,17.0,30.19,SSE,149,0.0,1.0,48,0.00,,,0.00,weatherlink.com 1.10,2013-02-19 00:27:00,
2013-02-18 19:42:00,34.8,17.0,30.19,WSW,248,0.0,4.0,48,0.00,,,0.00,weatherlink.com 1.10,2013-02-19 00:42:00,
2013-02-18 19:57:00,35.5,16.0,30.18,WNW,286,0.0,4.0,46,0.00,,,0.00,weatherlink.com 1.10,2013-02-19 00:57:00,
2013-02-18 20:12:00,35.5,18.0,30.18,West,279,0.0,3.0,49,0.00,,,0.00,weatherlink.com 1.10,2013-02-19 01:12:00,
2013-02-18 20:27:00,35.0,17.0,30.17,West,279,0.0,0.0,49,0.00,,,0.00,weatherlink.com 1.10,2013-02-19 01:27:00,
2013-02-18 20:42:00,34.4,17.0,30.17,West,279,0.0,1.0,50,0.00,,,0.00,weatherlink.com 1.10,2013-02-19 01:42:00,
2013-02-18 20:57:00,33.7,17.0,30.17,West,279,0.0,1.0,50,0.00,,,0.00,weatherlink.com 1.10,2013-02-19 01:57:00,
2013-02-18 21:12:00,33.1,17.0,30.17,West,279,0.0,0.0,51,0.00,,,0.00,weatherlink.com 1.10,2013-02-19 02:12:00,
2013-02-18 21:27:00,32.2,18.0,30.16,West,279,0.0,0.0,55,0.00,,,0.00,weatherlink.com 1.10,2013-02-19 02:27:00,
2013-02-18 21:42:00,31.5,17.0,30.16,West,277,0.0,1.0,56,0.00,,,0.00,weatherlink.com 1.10,2013-02-19 02:42:00,
2013-02-18 21:57:00,31.0,17.0,30.16,West,277,0.0,0.0,57,0.00,,,0.00,weatherlink.com 1.10,2013-02-19 02:57:00,
2013-02-18 22:12:00,30.4,17.0,30.15,West,277,0.0,0.0,59,0.00,,,0.00,weatherlink.com 1.10,2013-02-19 03:12:00,
2013-02-18 22:27:00,29.8,18.0,30.14,West,277,0.0,0.0,62,0.00,,,0.00,weatherlink.com 1.10,2013-02-19 03:27:00,
2013-02-18 22:43:00,29.2,18.0,30.14,West,277,0.0,0.0,63,0.00,,,0.00,weatherlink.com 1.10,2013-02-19 03:43:00,
2013-02-18 22:58:00,28.7,18.0,30.14,West,277,0.0,0.0,64,0.00,,,0.00,weatherlink.com 1.10,2013-02-19 03:58:00,
2013-02-18 23:13:00,28.4,18.0,30.13,West,277,0.0,0.0,66,0.00,,,0.00,weatherlink.com 1.10,2013-02-19 04:13:00,
2013-02-18 23:28:00,28.1,18.0,30.12,West,277,0.0,0.0,65,0.00,,,0.00,weatherlink.com 1.10,2013-02-19 04:28:00,
2013-02-18 23:43:00,27.8,18.0,30.12,West,277,0.0,0.0,66,0.00,,,0.00,weatherlink.com 1.10,2013-02-19 04:43:00,
2013-02-18 23:58:00,27.6,18.0,30.12,West,277,0.0,0.0,67,0.00,,,0.00,weatherlink.com 1.10,2013-02-19 04:58:00,